Location: Nakusp
(50.2330°N, 117.8000°W)
Time: 08:58:45
(UTC-07:00)

Daily predictions for brighter satellites

Satellite Brightness Start Highest point End
(mag) Time Altitude Azimuth Time Altitude Azimuth Time Altitude Azimuth
Iridium 81 3.9 21:50:31 10° S 21:53:07 66° E 21:56:16 10° N
CENTAUR R/B 3.5 21:50:13 10° NW 21:57:45 59° NE 22:06:02 10° ESE
Cosmos 1315 Rocket 4.2 21:54:09 10° SW 21:58:04 44° WNW 22:02:03 10° N
SL-8 R/B 4.1 21:54:30 10° SW 21:59:05 43° SSE 22:03:39 10° E
Cosmos 1461 4.2 21:55:51 10° S 21:59:45 27° ESE 22:03:44 10° ENE
NOSS 3-4 (A) 4.2 21:58:59 10° S 22:04:19 31° ESE 22:09:51 10° NE
NOSS 3-4 (C) 4.2 21:59:06 10° S 22:04:24 31° ESE 22:09:56 10° NE
CZ-2C R/B 3.9 22:01:00 10° SE 22:06:28 45° ENE 22:11:51 10° N
ARGOS 4.1 22:02:00 10° S 22:07:12 46° W 22:12:26 10° NNW
Cosmos 2278 Rocket 2.8 22:03:18 10° S 22:08:28 38° ESE 22:13:41 10° NE
APEX 3.2 22:08:21 10° NW 22:11:21 57° WSW 22:14:55 10° SSE
IGS 5A 3.8 22:09:47 10° SSE 22:13:50 56° ENE 22:17:56 10° N
Cosmos 220 Rocket 4.0 22:10:21 10° S 22:14:29 56° ESE 22:18:37 10° NNE
Meteor 1-21 Rocket 4.4 22:14:00 10° S 22:19:47 64° E 22:25:30 10° NNE
Meteor 2-13 Rocket 4.5 22:15:18 10° N 22:21:24 88° W 22:27:31 10° S
KORONAS-FOTON 4.2 22:17:42 10° SSW 22:21:37 70° WNW 22:25:33 10° N
Cosmos 1745 Rocket 4.1 22:15:23 10° N 22:21:45 82° W 22:28:01 10° S
COSMOS 2406 4.1 22:16:58 10° NW 22:22:25 44° WSW 22:27:49 10° S
SL-14 R/B 3.4 22:20:34 10° S 22:24:22 57° E 22:28:17 10° NNE
Cosmos 1844 Rocket 3.2 22:19:11 10° SW 22:24:49 66° WNW 22:30:28 10° NNE
CARTOSAT-1 3.6 22:21:01 11° SSE 22:25:06 72° ENE 22:29:26 10° N
SPOT 5 3.4 22:25:17 10° S 22:30:23 67° WSW 22:35:43 10° NNW
SL-27 R/B 3.5 22:27:31 10° N 22:30:58 37° ENE 22:33:50 13° SE
Cosmos 1844 4.0 22:25:53 10° SW 22:31:36 74° WNW 22:37:26 10° NNE
Cosmos 807 4.2 22:29:35 10° S 22:32:35 83° E 22:36:07 10° N
Cosmos 1076 Rocket 4.1 22:32:29 13° SSE 22:35:54 40° E 22:39:54 10° NNE
Lacrosse 5 2.4 22:32:26 10° WSW 22:37:28 63° NNW 22:42:30 10° ENE
ATLAS 3B R/B 3.5 22:35:28 10° NW 22:41:33 40° WSW 22:47:22 11° S
ATLAS 5 CENTAUR R/B 2.4 22:37:34 10° S 22:41:38 33° ESE 22:46:03 10° ENE
Helios 1B rocket 2.4 22:38:11 10° NNE 22:42:18 70° ESE 22:46:22 10° S
Cosmos 1626 2.5 22:40:51 15° SSE 22:43:43 48° E 22:47:20 10° NNE
Helios 1A 3.9 22:41:53 10° S 22:45:54 44° W 22:49:59 10° NNW
SPOT 1/Viking Rocket 4.2 22:41:43 10° S 22:46:42 50° W 22:51:44 10° NNW
H-2A R/B 3.9 22:42:35 10° SSW 22:47:05 27° W 22:51:40 10° NW
Cosmos 1340 4.5 22:44:48 10° NW 22:48:02 27° W 22:51:15 10° SSW
Cosmos 1703 4.4 22:47:40 17° SE 22:49:57 29° E 22:53:20 10° NNE
Cosmos 2082 Rocket 2.3 22:46:17 10° NNW 22:52:04 84° ENE 22:56:41 16° SSE
Cosmos 1833 Rocket 2.7 22:46:50 10° NNW 22:52:30 88° WSW 22:57:01 16° SSE
Cosmos 2297 4.5 22:48:47 14° SSE 22:52:55 34° ESE 22:58:01 10° NE
Iridium 67 2.2 22:51:56 10° N 22:53:31 89° SW 22:53:43 60° S
Cosmos 1709 Rocket 4.0 22:48:45 10° N 22:55:02 88° W 23:00:25 14° S
YAOGAN 11 4.2 22:52:02 16° SSE 22:55:42 89° ENE 23:00:15 10° NNW
Cosmos 2058 4.5 22:54:05 15° SE 22:56:14 22° E 22:59:25 10° NE
CZ-2C R/B 3.0 22:53:15 10° NNE 22:58:32 49° E 23:02:37 16° S
NOSS 2-2 (C) 3.9 22:55:16 12° S 22:58:35 39° ESE 23:02:46 10° NE
H-2A R/B 4.3 23:01:37 10° E 23:03:53 15° ENE 23:06:11 10° NNE
Cosmos 1455 2.4 23:02:56 10° N 23:06:41 56° ENE 23:09:00 21° SSE
Cosmos 1300 4.2 23:04:36 10° NNW 23:08:02 31° W 23:11:26 10° SSW
Cosmos 2074 Rocket 4.4 23:02:59 10° N 23:09:09 55° ENE 23:13:52 18° SSE
Meteor 2-19 Rocket 4.5 23:03:32 10° N 23:09:43 88° E 23:14:38 17° S
ATLAS 2AS CENTAUR R/B 3.9 23:10:10 10° WSW 23:18:02 56° NW 23:26:00 10° NE
Aureole 3 Rocket 3.9 23:11:17 11° S 23:18:13 85° E 23:23:21 10° NNE
Cosmos 2221 3.8 23:14:17 10° NNW 23:18:15 35° W 23:21:54 11° SSW
Meteor 1-29 3.6 23:16:50 10° N 23:20:11 53° WNW 23:23:10 12° SSW
RESURS DK-1 2.7 23:17:46 20° S 23:20:22 47° ESE 23:24:23 10° NE
Terra 2.8 23:20:16 13° SSW 23:24:09 39° W 23:28:38 10° NNW
Okean 3 Rocket 3.7 23:21:36 15° SSW 23:25:11 76° W 23:29:36 10° N
Cosmos 1992 Rocket 4.4 23:20:17 10° NNW 23:25:22 54° WSW 23:28:59 19° S
EO 1 Delta rocket 4.5 23:19:58 10° N 23:27:01 80° E 23:31:22 17° S
COBE Rocket 4.0 23:26:25 10° NNE 23:31:29 68° E 23:35:05 20° S
Cosmos 1328 Rocket 3.6 23:27:59 10° N 23:32:20 72° ENE 23:34:55 24° SSE
SAR-Lupe-4 3.5 23:31:59 27° SSE 23:33:51 89° WSW 23:37:28 10° NNW
COSMOS 2487 3.7 23:31:06 10° N 23:34:20 33° ENE 23:36:24 18° ESE
Cosmos 2228 Rocket 3.5 23:30:46 10° N 23:35:09 52° ENE 23:37:44 23° SE
Cosmos 2315 Rocket 4.4 23:31:49 10° SSW 23:38:03 65° WNW 23:44:26 10° N
Cosmos 1461 3.8 23:33:59 10° SW 23:38:38 58° NW 23:43:23 10° NE
SL-8 R/B 3.6 23:36:31 10° W 23:41:21 72° S 23:46:11 10° E
ADEOS Rocket 3.8 23:36:13 10° NNE 23:41:45 38° E 23:45:35 20° SSE
Cosmos 1743 Rocket 4.2 23:39:41 24° SSE 23:41:53 42° E 23:46:05 10° NNE
CZ-2C R/B 4.4 23:41:41 13° SSW 23:46:23 36° W 23:51:39 10° NNW
Meteor 2-10 Rocket 3.7 23:42:21 10° N 23:47:29 64° ENE 23:50:48 23° SSE
CZ-4C R/B 4.1 23:45:33 21° SE 23:47:42 39° ENE 23:51:13 10° N
Cosmos 1441 Rocket 3.2 23:44:07 10° NNW 23:47:56 73° W 23:49:46 28° S
CENTAUR R/B 3.5 23:41:03 10° NW 23:48:39 53° WSW 23:54:32 20° S
Cosmos 2184 Rocket 4.0 23:42:32 10° N 23:48:55 85° W 23:53:16 21° S
Meteor 1-11 4.4 23:45:28 15° SSW 23:50:16 75° WNW 23:56:07 10° N
NOSS 2-2 (E) 3.8 23:47:49 10° SW 23:51:49 70° NW 23:56:43 10° NE
SAR-Lupe-1 4.2 23:50:23 29° S 23:52:04 66° WSW 23:55:40 10° NNW
Cosmos 2278 Rocket 3.3 23:47:04 10° SW 23:52:29 45° NW 23:57:58 10° NNE
Spot 4 4.4 23:51:21 21° SSW 23:54:25 51° W 23:59:11 10° NNW
